LogID,LogEntryDate,LogEntryTime,LogEntrySeconds,LogNotes,AFR,STFT,CurrentLTFT,CruiseLTFT,IdleLTFT,IPW,O2Sensor2,Load,AFRMAP,LoadTiming,TimingAdv,KnockSum,RPM,IDC,Baro,MAP,Boost,OmniMAP,OmniBoost,WGDC_Active,MAF,InVVTtarget,ExVVTtarget,InVVTactual,ExVVTactual,TPS,APP,IAT,WGDCCorr,Speed,Battery,ECT,MAT,MAPCalcs,IMAPCalcs,MAFCalcs,ChosenCalc,EthanolPercent,Custom
1,2019-06-07,16:23:36.95490,0.24836,,0,0,-6.8359375,-8.203125,-6.8359375,0,0,10.9375,14.7,10.9375,-10,0,2578.125,0,14.21369852,3.859476,-10.35422252,4.686,-9.52769852,0,1.490208,10,0,10.625,0.625,14.1176470588235,9.61176470588235,87.8,0,37.29,14.07936,183.2,102.2,14.0625,0,12.5,10.9375,78.4313725490196,
2,2019-06-07,16:23:36.97038,0.26611,,0,0,-6.8359375,-8.203125,-6.8359375,0,0,10.9375,14.7,10.9375,-10,0,2570.3125,0,14.21369852,3.859476,-10.35422252,4.686,-9.52769852,0,1.490208,10,0,10.625,0.625,14.1176470588235,9.61176470588235,87.8,0,37.29,14.07936,183.2,102.2,14.0625,0,10.9375,10.9375,78.4313725490196,
3,2019-06-07,16:23:37.00175,0.29245,,0,0,-6.8359375,-8.203125,-6.8359375,0,0,10.9375,14.7,10.9375,-10,0,2570.3125,0,14.28621739,3.9559629,-10.33025449,4.80315,-9.48306739,0,1.490208,10,0,10.625,0.625,14.1176470588235,9.61176470588235,87.8,0,37.29,14.07936,183.2,102.2,14.0625,0,10.9375,10.9375,78.4313725490196,
4,2019-06-07,16:23:37.01741,0.31462,,28.2975,0,-6.8359375,-8.203125,-6.8359375,0,0,10.9375,14.7,10.9375,-10,0,2570.3125,0,14.28621739,3.9559629,-10.33025449,4.80315,-9.48306739,0,1.490208,10,0,10.625,0.46875,14.1176470588235,9.61176470588235,87.8,0,37.29,14.07936,183.2,102.2,14.0625,0,10.9375,10.9375,78.4313725490196,
5,2019-06-07,16:23:37.04849,0.34428,,28.2975,0,-6.8359375,-8.203125,-6.8359375,0,0,10.9375,14.7,10.9375,-10,0,2562.5,0,14.21369852,3.9559629,-10.25773562,4.80315,-9.41054852,0,1.490208,10,0,10.625,0.46875,14.1176470588235,9.61176470588235,87.8,0,37.29,14.07936,183.2,102.2,14.0625,0,10.9375,10.9375,78.4313725490196,
6,2019-06-07,16:23:37.07982,0.3643,,28.2975,0,-6.8359375,-8.203125,-6.8359375,0,0,10.9375,14.7,10.9375,-10,0,2562.5,0,14.21369852,3.9559629,-10.25773562,4.80315,-9.41054852,0,1.490208,10,0,10.625,0.625,14.1176470588235,9.61176470588235,87.8,0,37.29,14.22602,183.2,102.2,14.0625,0,10.9375,10.9375,78.4313725490196,
7,2019-06-07,16:23:37.09536,0.39424,,28.2975,0,-6.8359375,-8.203125,-6.8359375,0,0,10.9375,14.7,10.9375,-10,0,2554.6875,0,14.28621739,3.859476,-10.42674139,4.686,-9.60021739,0,1.490208,10,0,10.625,0.625,14.1176470588235,9.61176470588235,87.8,0,37.29,14.22602,183.2,102.2,14.0625,0,10.9375,10.9375,78.8235294117647,
8,2019-06-07,16:23:37.12660,0.41199,,28.2975,0,-6.8359375,-8.203125,-6.8359375,0,0,10.9375,14.7,10.9375,-10,0,2554.6875,0,14.28621739,3.859476,-10.42674139,4.686,-9.60021739,0,1.490208,10,0,10.625,0.625,14.1176470588235,9.61176470588235,87.8,0,37.29,14.22602,183.2,102.2,14.0625,0,10.9375,10.9375,78.8235294117647,
9,2019-06-07,16:23:37.12660,0.42582,,28.2975,0,-6.8359375,-8.203125,-6.8359375,0,0,10.9375,14.7,10.9375,-10,0,2554.6875,0,14.28621739,3.859476,-10.42674139,4.686,-9.60021739,0,1.490208,10,0,10.625,0.625,14.1176470588235,9.61176470588235,87.8,0,37.29,14.07936,183.2,102.2,14.0625,0,10.9375,10.9375,78.4313725490196,
10,2019-06-07,16:23:37.15784,0.44419,,28.2975,0,-6.8359375,-8.203125,-6.8359375,0,0,10.9375,14.7,10.9375,-10,0,2554.6875,0,14.28621739,3.859476,-10.42674139,4.686,-9.60021739,0,1.490208,10,0,10.78125,0.625,14.1176470588235,9.61176470588235,87.8,0,37.29,14.07936,183.2,102.2,14.0625,0,10.9375,10.9375,78.8235294117647,
11,2019-06-07,16:23:37.18909,0.47936,,41.1894,0,-6.8359375,-8.203125,-6.8359375,1.4,0,10.9375,14.7,10.9375,-10,0,2554.6875,2.98046875,14.28621739,3.9559629,-10.33025449,4.80315,-9.48306739,0,1.490208,10,0,10.78125,0.625,15.2941176470588,21.2470588235294,87.8,0,37.29,14.07936,183.2,102.2,14.0625,0,12.5,10.9375,78.4313725490196,
12,2019-06-07,16:23:37.20471,0.50228,,41.1894,0,-6.8359375,-8.203125,-6.8359375,1.4,0,10.9375,14.7,10.9375,-10,0,2546.875,2.97135416666667,14.28621739,3.9559629,-10.33025449,4.80315,-9.48306739,0,1.490208,10.625,0,10.625,0.46875,15.2941176470588,21.2470588235294,87.8,0,37.29,14.07936,183.2,102.2,14.0625,0,25,14.0625,78.4313725490196,
13,2019-06-07,16:23:37.25157,0.54694,,41.1894,0,-6.8359375,-8.203125,-6.8359375,1.6,0,14.0625,14.7,15.625,0,0,2562.5,3.41666666666667,14.28621739,6.3681354,-7.91808199,7.7319,-6.55431739,0,2.529432,10.625,0,10.625,0.46875,15.2941176470588,21.2470588235294,87.8,0,37.29,14.07936,183.2,102.2,18.75,0,82.8125,18.75,78.4313725490196,
14,2019-06-07,16:23:37.28281,0.58168,,41.1894,0,-6.8359375,-8.203125,-6.8359375,2.6,0,28.125,14.7,39.0625,40,0,2554.6875,5.53515625,14.28621739,6.3681354,-7.91808199,7.7319,-6.55431739,0,2.529432,21.875,-10,10.78125,0.625,60.7843137254902,96.6235294117647,87.8,0,37.29,14.07936,183.2,102.2,64.0625,0,125,57.8125,78.4313725490196,
15,2019-06-07,16:23:37.34530,0.63281,,41.1894,0,-6.8359375,-8.203125,-6.8359375,4.1,0,48.4375,14.7,60.9375,22,0,2671.875,9.12890625,14.28621739,14.3765481,0.0903307100000017,17.45535,3.16913261,3.5,2.019624,21.875,-10,10.78125,0.625,60.7843137254902,96.6235294117647,87.8,0,37.29,14.22602,183.2,102.2,87.5,0,71.875,64.0625,78.4313725490196,
16,2019-06-07,16:23:37.37654,0.67391,,0,0,-8.203125,-8.203125,-6.8359375,3.8,0,68.75,14.7,68.75,22,0,2734.375,8.65885416666667,14.28621739,14.3765481,0.0903307100000017,17.45535,3.16913261,3.5,2.019624,23.125,0,24.375,0.15625,60.7843137254902,96.6235294117647,87.8,0,37.29,14.22602,183.2,102.2,87.5,0,73.4375,70.3125,78.4313725490196,
17,2019-06-07,16:23:37.42340,0.71399,,0,0,-8.203125,-8.203125,-6.8359375,3.6,0,70.3125,14.7,70.3125,30,0,2453.125,7.359375,14.28621739,14.3765481,0.0903307100000017,17.45535,3.16913261,4.5,2.372568,23.125,0,24.375,0.15625,85.8823529411765,100.164705882353,87.8,0,37.29,14.22602,183.2,102.2,89.0625,0,81.25,71.875,78.4313725490196,
18,2019-06-07,16:23:37.45465,0.75143,,0,0,-8.203125,-8.203125,-6.8359375,3.8,0,71.875,14.7,71.875,16,0,2554.6875,8.08984375,14.28621739,14.3765481,0.0903307100000017,17.45535,3.16913261,4.5,2.372568,23.125,0,24.84375,0,85.8823529411765,100.164705882353,87.8,0,37.29,14.22602,183.2,102.2,89.0625,0,79.6875,75,78.4313725490196,
19,2019-06-07,16:23:37.50151,0.79525,,0,0,-8.203125,-8.203125,-6.8359375,3.7,0,75,14.7,75,19,0,2695.3125,8.310546875,14.28621739,14.5695219,0.283304510000001,17.68965,3.40343261,7.5,2.627472,23.125,0,24.84375,0,85.8823529411765,100.164705882353,87.8,0,37.29,14.22602,183.2,102.2,89.0625,0,79.6875,75,78.4313725490196,
20,2019-06-07,16:23:37.53288,0.82522,,23.9316,0,-8.203125,-8.203125,-6.8359375,3.7,0,75,14.7,75,28,0,2609.375,8.04557291666667,14.28621739,14.5695219,0.283304510000001,17.68965,3.40343261,7.5,2.627472,21.25,0,23.90625,0.15625,86.6666666666667,101.176470588235,87.8,0,37.29,14.22602,183.2,102.2,90.625,0,70.3125,75,78.4313725490196,
21,2019-06-07,16:23:37.56400,0.86153,,23.9316,0,-8.203125,-8.203125,-6.8359375,3.7,0,75,14.7,75,28,0,2531.25,7.8046875,14.21369852,14.6660088,0.452310280000001,17.8068,3.59310148,7.5,2.333352,21.25,0,23.90625,0.15625,86.6666666666667,101.176470588235,87.8,0,37.29,14.07936,183.2,102.2,92.1875,0,79.6875,75,78.8235294117647,
22,2019-06-07,16:23:37.61086,0.89628,,23.9316,0,-8.203125,-8.203125,-6.8359375,3.8,0,76.5625,14.7,76.5625,18,0,2632.8125,8.33723958333333,14.21369852,14.6660088,0.452310280000001,17.8068,3.59310148,7.5,2.333352,21.25,0,22.65625,0.15625,86.6666666666667,101.176470588235,87.8,0,37.29,14.07936,183.2,102.2,90.625,0,78.125,76.5625,78.4313725490196,
23,2019-06-07,16:23:37.64210,0.93859,,23.9316,0,-8.203125,-8.203125,-6.8359375,3.7,0,76.5625,14.7,76.5625,27,0,2664.0625,8.21419270833333,14.28621739,14.7624957,0.476278310000001,17.92395,3.63773261,7.5,2.431392,21.25,0,22.65625,0.15625,87.0588235294118,101.682352941176,87.8,0,37.29,14.07936,183.2,102.2,92.1875,0,81.25,76.5625,78.8235294117647,
24,2019-06-07,16:23:37.68896,0.97479,,12.348,0,-8.203125,-8.203125,-6.8359375,3.7,0,78.125,14.7,78.125,26,0,2585.9375,7.97330729166667,14.28621739,14.7624957,0.476278310000001,17.92395,3.63773261,7.5,2.431392,20.625,0,21.71875,0.15625,87.0588235294118,101.682352941176,87.8,0,37.29,14.15269,183.2,102.2,92.1875,0,79.6875,76.5625,78.4313725490196,
25,2019-06-07,16:23:37.72037,1.00842,,12.348,0,-8.203125,-8.203125,-6.8359375,3.8,0,76.5625,14.7,78.125,26,0,2585.9375,8.18880208333333,14.28621739,14.8589826,0.57276521,18.0411,3.75488261,7.5,2.490216,20.625,0,21.71875,0.15625,87.0588235294118,101.682352941176,87.8,0,37.29,14.15269,183.2,102.2,92.1875,0,81.25,78.125,78.4313725490196,
26,2019-06-07,16:23:37.75159,1.04495,,12.348,0,-8.203125,-8.203125,-6.8359375,3.8,0,78.125,14.7,79.6875,27,0,2648.4375,8.38671875,14.28621739,14.8589826,0.57276521,18.0411,3.75488261,7.5,2.490216,20,0,21.09375,0.3125,87.0588235294118,101.682352941176,87.8,0,37.29,14.15269,183.2,102.2,92.1875,0,79.6875,79.6875,78.4313725490196,
27,2019-06-07,16:23:37.79845,1.08825,,12.348,0,-8.203125,-8.203125,-6.8359375,3.5,0,79.6875,14.7,78.125,26,0,2656.25,7.74739583333333,14.28621739,14.9554695,0.66925211,18.15825,3.87203261,7.5,2.509824,20,0,21.09375,0.3125,87.0588235294118,101.682352941176,87.8,0,37.29,14.15269,183.2,102.2,93.75,0,75,78.125,78.4313725490196,
28,2019-06-07,16:23:37.82969,1.11825,,12.348,0,-8.203125,-8.203125,-6.8359375,3.6,0,78.125,14.7,78.125,26,0,2609.375,7.828125,14.28621739,14.9554695,0.66925211,18.15825,3.87203261,7.5,2.509824,20.625,0,20.3125,0.15625,87.0588235294118,101.682352941176,87.8,0,37.29,14.15269,183.2,102.2,93.75,0,81.25,78.125,78.4313725490196,
29,2019-06-07,16:23:37.86083,1.16008,,11.9658,0,-8.203125,-8.203125,-6.8359375,3.7,0,78.125,14.7,78.125,27,0,2640.625,8.14192708333333,14.28621739,15.0519564,0.765739010000001,18.2754,3.98918261,7.5,2.078448,20.625,0,20.3125,0.15625,87.0588235294118,101.682352941176,87.8,0,37.29,14.15269,183.2,102.2,93.75,0,81.25,78.125,78.4313725490196,
30,2019-06-07,16:23:37.89218,1.182,,11.9658,0,-8.203125,-8.203125,-6.8359375,3.7,0,78.125,14.7,78.125,27,0,2664.0625,8.21419270833333,14.28621739,15.0519564,0.765739010000001,18.2754,3.98918261,7.5,2.078448,20.625,0,20,0.3125,87.0588235294118,101.682352941176,87.8,0,37.29,14.07936,183.2,102.2,93.75,0,81.25,79.6875,78.8235294117647,
31,2019-06-07,16:23:37.90775,1.20459,,11.9658,0,-8.203125,-8.203125,-6.8359375,3.7,0,78.125,14.7,78.125,27,0,2664.0625,8.21419270833333,14.28621739,15.0519564,0.765739010000001,18.2754,3.98918261,7.5,2.490216,20.625,0,20,0.3125,87.0588235294118,101.682352941176,87.8,0,37.29,14.07936,183.2,102.2,93.75,0,82.8125,79.6875,78.4313725490196,
32,2019-06-07,16:23:37.95466,1.24137,,11.9658,0,-8.203125,-8.203125,-6.8359375,3.8,0,79.6875,14.7,79.6875,26,0,2648.4375,8.38671875,14.28621739,15.0519564,0.765739010000001,18.2754,3.98918261,7.5,2.490216,20,0,20,0.15625,86.6666666666667,101.176470588235,87.8,0,37.29,14.07936,183.2,102.2,93.75,20.3125,82.8125,79.6875,78.4313725490196,
33,2019-06-07,16:23:37.98577,1.28022,,11.9658,0,-8.203125,-8.203125,-6.8359375,3.7,0,78.125,14.7,79.6875,27,0,2648.4375,8.166015625,14.28621739,15.1484433,0.862225910000001,18.39255,4.10633261,7.5,2.372568,20,0,20,0.15625,86.6666666666667,101.176470588235,87.8,0,37.29,14.22602,183.2,104,92.1875,51.5625,76.5625,79.6875,78.8235294117647,
34,2019-06-07,16:23:38.01702,1.31299,,12.0099,0,-8.203125,-8.203125,-6.8359375,3.7,0,79.6875,14.7,79.6875,27,0,2679.6875,8.26236979166667,14.28621739,15.1484433,0.862225910000001,18.39255,4.10633261,7.5,2.372568,19.375,0,19.6875,0.15625,86.6666666666667,101.176470588235,87.8,0,37.29,14.22602,183.2,104,90.625,82.8125,79.6875,82.8125,78.4313725490196,
35,2019-06-07,16:23:38.06388,1.36052,,12.0099,0,-8.203125,-8.203125,-6.8359375,3.8,0,82.8125,14.5860465116279,82.8125,25,0,2687.5,8.51041666666667,14.21369852,15.3414171,1.12771858,18.62685,4.41315148,7.5,2.686296,19.375,0,19.6875,0.15625,87.0588235294118,101.176470588235,87.8,0,37.29,14.22602,183.2,104,96.875,0,79.6875,82.8125,78.4313725490196,
36,2019-06-07,16:23:38.09512,1.38763,,12.0099,0,-8.203125,-8.203125,-6.8359375,3.8,0,82.8125,14.5860465116279,81.25,25,0,2671.875,8.4609375,14.21369852,15.3414171,1.12771858,18.62685,4.41315148,7.5,2.686296,18.75,0,19.21875,0.15625,87.0588235294118,101.176470588235,87.8,0,38.533,14.07936,183.2,104,96.875,0,85.9375,82.8125,78.4313725490196,
37,2019-06-07,16:23:38.12636,1.42283,,12.0099,0,-8.203125,-8.203125,-6.8359375,3.8,0,82.8125,14.5860465116279,82.8125,25,0,2679.6875,8.48567708333333,14.28621739,15.437904,1.15168661,18.744,4.45778261,7.5,2.098056,18.75,0,19.21875,0.15625,87.0588235294118,101.176470588235,87.8,0,38.533,14.07936,183.2,104,96.875,9.375,85.9375,81.25,78.4313725490196,
38,2019-06-07,16:23:38.17336,1.45774,,12.0099,0,-8.203125,-8.203125,-6.8359375,3.7,0,81.25,14.7,81.25,25,0,2710.9375,8.35872395833333,14.28621739,15.437904,1.15168661,18.744,4.45778261,7.5,2.098056,18.75,0,18.90625,0.3125,86.6666666666667,101.176470588235,87.8,0,38.533,14.07936,183.2,104,96.875,0,76.5625,81.25,78.4313725490196,
39,2019-06-07,16:23:38.18885,1.48776,,12.054,0,-8.203125,-8.203125,-6.8359375,3.7,0,81.25,14.7,81.25,26,0,2718.75,8.3828125,14.28621739,15.437904,1.15168661,18.744,4.45778261,7.5,2.039232,18.75,0,18.90625,0.3125,86.6666666666667,101.176470588235,87.8,0,38.533,14.07936,183.2,104,95.3125,31.25,79.6875,81.25,78.4313725490196,
40,2019-06-07,16:23:38.23586,1.52431,,12.054,0,-8.203125,-8.203125,-6.8359375,3.7,0,82.8125,14.5860465116279,82.8125,25,0,2695.3125,8.310546875,14.28621739,15.437904,1.15168661,18.744,4.45778261,7.5,2.039232,18.75,0,18.75,0.15625,86.6666666666667,101.176470588235,87.8,0,38.533,14.07936,183.2,104,93.75,62.5,85.9375,81.25,78.4313725490196,
41,2019-06-07,16:23:38.26695,1.55509,,12.054,0,-8.203125,-8.203125,-6.8359375,3.7,0,82.8125,14.5860465116279,82.8125,25,0,2687.5,8.28645833333333,14.28621739,15.5343909,1.24817351,18.86115,4.57493261,7.5,2.705904,18.75,0,18.75,0.15625,86.6666666666667,101.176470588235,87.8,0,38.533,14.07936,183.2,104,93.75,84.375,78.125,84.375,78.4313725490196,
42,2019-06-07,16:23:38.29833,1.58929,,12.054,0,-8.203125,-8.203125,-6.8359375,3.8,0,84.375,14.5860465116279,84.375,24,0,2734.375,8.65885416666667,14.28621739,15.5343909,1.24817351,18.86115,4.57493261,7.5,2.705904,17.5,0,18.59375,0.15625,86.6666666666667,101.176470588235,87.8,0,38.533,14.15269,183.2,104,93.75,84.375,85.9375,84.375,78.4313725490196,
43,2019-06-07,16:23:38.34520,1.63007,,12.201,0,-8.203125,-8.203125,-6.8359375,3.8,0,85.9375,14.5860465116279,84.375,24,0,2726.5625,8.63411458333333,14.28621739,15.7273647,1.44114731,19.09545,4.80923261,7.5,2.098056,17.5,0,18.59375,0.15625,86.6666666666667,101.176470588235,87.8,0,38.533,14.15269,183.2,104,93.75,85.9375,79.6875,85.9375,78.4313725490196,
44,2019-06-07,16:23:38.36068,1.65949,,12.201,0,-8.203125,-8.203125,-6.8359375,3.8,0,85.9375,14.5860465116279,85.9375,24,0,2710.9375,8.58463541666667,14.28621739,15.7273647,1.44114731,19.09545,4.80923261,7.5,2.098056,16.875,0,18.125,0.3125,86.6666666666667,101.176470588235,87.8,0,38.533,14.15269,183.2,104,93.75,85.9375,84.375,85.9375,78.4313725490196,
45,2019-06-07,16:23:38.39193,1.68735,,12.201,0,-8.203125,-8.203125,-6.8359375,3.8,0,85.9375,14.5860465116279,85.9375,23,0,2726.5625,8.63411458333333,14.28621739,15.7273647,1.44114731,19.09545,4.80923261,7.5,2.372568,16.875,0,18.125,0.3125,86.6666666666667,101.176470588235,87.8,0,38.533,14.07936,183.2,104,95.3125,85.9375,92.1875,85.9375,78.4313725490196,
46,2019-06-07,16:23:38.42317,1.71226,,12.201,0,-8.203125,-8.203125,-6.8359375,3.8,0,85.9375,14.5860465116279,85.9375,24,0,2757.8125,8.73307291666667,14.28621739,15.7273647,1.44114731,19.09545,4.80923261,7.5,2.372568,16.875,0,17.8125,0,86.6666666666667,101.176470588235,87.8,0,38.533,14.07936,183.2,104,95.3125,85.9375,79.6875,85.9375,78.4313725490196,
47,2019-06-07,16:23:38.45451,1.74012,,12.201,0,-8.203125,-8.203125,-6.8359375,3.8,0,85.9375,14.5860465116279,85.9375,24,0,2757.8125,8.73307291666667,14.28621739,15.8238516,1.53763421,19.2126,4.92638261,7.5,1.921584,16.875,0,17.8125,0,86.6666666666667,101.176470588235,87.8,0,38.533,14.07936,183.2,104,95.3125,85.9375,81.25,85.9375,78.4313725490196,
48,2019-06-07,16:23:38.47003,1.76496,,12.201,0,-8.203125,-8.203125,-6.8359375,3.8,0,85.9375,14.5860465116279,85.9375,24,0,2750,8.70833333333333,14.28621739,15.8238516,1.53763421,19.2126,4.92638261,7.5,1.921584,16.25,0,17.5,0.3125,86.6666666666667,101.176470588235,87.8,0,38.533,14.15269,183.2,104,95.3125,85.9375,81.25,85.9375,78.4313725490196,
49,2019-06-07,16:23:38.50128,1.79214,,12.4068,0,-8.203125,-8.203125,-6.8359375,3.9,0,85.9375,14.5860465116279,85.9375,24,0,2750,8.9375,14.28621739,15.8238516,1.53763421,19.2126,4.92638261,7.5,2.196096,16.25,0,17.5,0.3125,86.6666666666667,101.176470588235,87.8,0,38.533,14.15269,183.2,104,95.3125,85.9375,81.25,85.9375,78.4313725490196,
50,2019-06-07,16:23:38.53267,1.82013,,12.4068,0,-8.203125,-8.203125,-6.8359375,3.9,0,87.5,14.5860465116279,87.5,24,0,2750,8.9375,14.28621739,15.8238516,1.53763421,19.2126,4.92638261,7.5,2.196096,16.875,-0.625,17.03125,0.15625,86.6666666666667,101.176470588235,87.8,0,38.533,14.15269,183.2,104,96.875,85.9375,79.6875,85.9375,78.4313725490196,
51,2019-06-07,16:23:38.56392,1.85213,,12.4068,0,-8.203125,-8.203125,-6.8359375,3.9,0,87.5,14.5860465116279,87.5,24,0,2781.25,9.0390625,14.28621739,16.0168254,1.73060801,19.4469,5.16068261,7.5,1.76472,16.875,-0.625,17.03125,0.15625,86.6666666666667,101.176470588235,87.8,0,38.533,14.07936,183.2,104,96.875,87.5,79.6875,87.5,78.4313725490196,
52,2019-06-07,16:23:38.59500,1.88207,,12.4068,0,-8.203125,-8.203125,-6.8359375,3.9,0,87.5,14.4738461538462,87.5,23,0,2781.25,9.0390625,14.28621739,16.0168254,1.73060801,19.4469,5.16068261,7.5,1.76472,16.875,-0.625,16.875,0.15625,86.6666666666667,101.176470588235,87.8,0,38.533,14.07936,183.2,104,96.875,87.5,68.75,87.5,78.4313725490196,
53,2019-06-07,16:23:38.61062,1.90985,,12.4068,0,-8.203125,-8.203125,-6.8359375,3.9,0,87.5,14.4738461538462,87.5,23,0,2765.625,8.98828125,14.28621739,16.0168254,1.73060801,19.4469,5.16068261,7.5,2.64708,16.875,-0.625,16.875,0.15625,86.6666666666667,101.176470588235,87.8,0,38.533,14.07936,183.2,104,96.875,87.5,81.25,87.5,78.4313725490196,
54,2019-06-07,16:23:38.64187,1.93712,,12.4068,0,-8.203125,-8.203125,-6.8359375,3.9,0,87.5,14.4738461538462,89.0625,23,0,2773.4375,9.013671875,14.28621739,16.0168254,1.73060801,19.4469,5.16068261,7.5,2.64708,16.25,-0.625,17.03125,0.3125,86.6666666666667,101.176470588235,87.8,0,38.533,14.22602,183.2,104,96.875,87.5,92.1875,89.0625,78.4313725490196,
55,2019-06-07,16:23:38.68873,1.97451,,12.2157,0,-8.203125,-8.203125,-6.8359375,3.9,0,89.0625,14.4738461538462,89.0625,23,0,2796.875,9.08984375,14.28621739,16.1133123,1.82709491,19.56405,5.27783261,7.5,1.745112,16.25,-0.625,17.03125,0.3125,86.6666666666667,101.176470588235,87.8,0,38.533,14.22602,183.2,104,96.875,87.5,82.8125,87.5,78.4313725490196,
56,2019-06-07,16:23:38.72004,2.00452,,12.2157,0,-8.203125,-8.203125,-6.8359375,3.9,0,87.5,14.4738461538462,89.0625,23,0,2804.6875,9.115234375,14.28621739,16.1133123,1.82709491,19.56405,5.27783261,7.5,1.745112,16.875,-1.25,16.71875,0.15625,86.6666666666667,101.176470588235,87.8,0,38.533,14.22602,183.2,104,96.875,87.5,87.5,87.5,78.4313725490196,
57,2019-06-07,16:23:38.75125,2.03563,,12.2157,0,-8.203125,-8.203125,-6.8359375,3.9,0,87.5,14.4738461538462,87.5,23,0,2796.875,9.08984375,14.28621739,16.3062861,2.02006871,19.79835,5.51213261,7.5,2.627472,16.875,-1.25,16.71875,0.15625,86.6666666666667,101.176470588235,87.8,0,38.533,14.07936,183.2,104,98.4375,89.0625,87.5,89.0625,78.4313725490196,
58,2019-06-07,16:23:38.78262,2.06701,,12.2157,0,-8.203125,-8.203125,-6.8359375,3.9,0,89.0625,14.4738461538462,89.0625,23,0,2804.6875,9.115234375,14.28621739,16.3062861,2.02006871,19.79835,5.51213261,7.5,2.627472,16.875,-1.25,16.875,0.15625,86.6666666666667,101.176470588235,87.8,0,38.533,14.07936,183.2,104,98.4375,89.0625,78.125,89.0625,78.4313725490196,
59,2019-06-07,16:23:38.79817,2.09559,,12.2157,0,-8.203125,-8.203125,-6.8359375,3.9,0,89.0625,14.4738461538462,89.0625,23,0,2812.5,9.140625,14.28621739,16.3062861,2.02006871,19.79835,5.51213261,7.5,2.15688,16.875,-1.25,16.875,0.15625,86.6666666666667,101.176470588235,87.8,0,38.533,14.07936,183.2,104,98.4375,89.0625,85.9375,89.0625,78.4313725490196,
60,2019-06-07,16:23:38.83019,2.12175,,12.1569,0,-8.203125,-8.203125,-6.8359375,3.9,0,89.0625,14.4738461538462,89.0625,23,0,2820.3125,9.166015625,14.28621739,16.3062861,2.02006871,19.79835,5.51213261,7.5,2.15688,16.875,-1.25,16.875,0.15625,86.6666666666667,101.176470588235,87.8,0,41.019,14.22602,183.2,102.2,98.4375,89.0625,89.0625,89.0625,78.4313725490196,
61,2019-06-07,16:23:38.84581,2.14423,,12.1569,0,-8.203125,-8.203125,-6.8359375,3.9,0,89.0625,14.4738461538462,89.0625,23,0,2820.3125,9.166015625,14.28621739,16.402773,2.11655561,19.9155,5.62928261,7.5,1.882368,16.875,-1.25,16.875,0.15625,86.6666666666667,101.176470588235,87.8,0,41.019,14.22602,183.2,102.2,100,89.0625,87.5,89.0625,78.4313725490196,
62,2019-06-07,16:23:38.87705,2.16714,,12.1569,0,-8.203125,-8.203125,-6.8359375,3.8,0,89.0625,14.4738461538462,89.0625,23,0,2820.3125,8.93098958333333,14.28621739,16.402773,2.11655561,19.9155,5.62928261,7.5,1.882368,16.875,-1.875,16.875,0.15625,86.6666666666667,101.176470588235,87.8,0,41.019,14.22602,183.2,102.2,100,89.0625,90.625,90.625,78.4313725490196,
63,2019-06-07,16:23:38.90829,2.19937,,12.1569,0,-8.203125,-8.203125,-6.8359375,3.8,0,90.625,14.4738461538462,90.625,23,0,2820.3125,8.93098958333333,14.28621739,16.402773,2.11655561,19.9155,5.62928261,7.5,2.705904,16.875,-1.875,16.875,0.15625,86.6666666666667,101.176470588235,87.8,0,41.019,14.15269,183.2,102.2,100,90.625,92.1875,90.625,78.4313725490196,
64,2019-06-07,16:23:38.93954,2.22513,,12.1569,0,-8.203125,-8.203125,-6.8359375,3.7,0,90.625,14.4738461538462,90.625,23,0,2843.75,8.76822916666667,14.28621739,16.402773,2.11655561,19.9155,5.62928261,7.5,2.705904,17.5,-1.875,16.875,0.3125,86.6666666666667,101.176470588235,87.8,0,41.019,14.15269,183.2,102.2,100,90.625,82.8125,90.625,78.4313725490196,
65,2019-06-07,16:23:38.95529,2.24517,,12.1569,0,-8.203125,-8.203125,-6.8359375,3.7,0,90.625,14.4738461538462,90.625,23,0,2843.75,8.76822916666667,14.28621739,16.402773,2.11655561,19.9155,5.62928261,7.5,2.509824,17.5,-1.875,16.875,0.3125,86.6666666666667,101.176470588235,87.8,0,41.019,14.15269,183.2,102.2,100,90.625,85.9375,90.625,78.4313725490196,
66,2019-06-07,16:23:38.98640,2.27303,,12.4215,0,-8.203125,-8.203125,-6.8359375,3.7,0,90.625,14.4738461538462,90.625,23,0,2851.5625,8.79231770833333,14.28621739,16.402773,2.11655561,19.9155,5.62928261,7.5,2.509824,17.5,-1.875,16.875,0.15625,86.6666666666667,101.176470588235,87.8,0,41.019,14.22602,183.2,102.2,100,90.625,84.375,90.625,78.4313725490196,
67,2019-06-07,16:23:39.01764,2.30401,,12.4215,0,-8.203125,-8.203125,-6.8359375,3.6,0,90.625,14.4738461538462,90.625,23,0,2851.5625,8.5546875,14.28621739,16.4992599,2.21304251,20.03265,5.74643261,7.5,1.941192,17.5,-1.875,16.875,0.15625,86.6666666666667,101.176470588235,87.8,0,41.019,14.22602,183.2,102.2,100,90.625,90.625,90.625,78.4313725490196,
68,2019-06-07,16:23:39.03330,2.33154,,12.4215,0,-8.203125,-8.203125,-6.8359375,3.6,0,90.625,14.4738461538462,90.625,23,0,2859.375,8.578125,14.28621739,16.4992599,2.21304251,20.03265,5.74643261,7.5,1.941192,18.125,-1.875,16.875,0.3125,86.6666666666667,101.176470588235,87.8,0,41.019,14.22602,183.2,102.2,100,90.625,90.625,90.625,78.4313725490196,
69,2019-06-07,16:23:39.08026,2.36905,,12.4215,0,-8.203125,-8.203125,-6.8359375,3.4,0,90.625,14.4738461538462,90.625,23,0,2867.1875,8.12369791666667,14.28621739,16.5957468,2.30952941,20.1498,5.86358261,7.5,2.470608,18.125,-1.875,16.875,0.3125,86.6666666666667,101.176470588235,87.8,0,41.019,14.15269,183.2,102.2,106.25,0,92.1875,90.625,78.4313725490196,